Location: Harrisburg
(40.2740°N, 76.8850°W)
Time: 07:30:06
(UTC-05:00)

Tiangong 1 - Visible Passes

Search period start: 12 December 2017 00:00
Search period end: 22 December 2017 00:00
Orbit: 276 x 303 km, 42.8° (Epoch: 11 December)

Date Brightness Start Highest point End Pass type
(mag) Time Alt. Az. Time Alt. Az. Time Alt. Az.
19 Dec 3.8 05:40:33 10° SSE 05:41:25 11° SE 05:42:17 10° SE visible
20 Dec 2.8 05:44:16 18° S 05:45:06 21° SSE 05:47:06 10° E visible
21 Dec 1.6 05:48:31 37° S 05:48:45 38° SSE 05:51:08 10° E visible
